Regional Weather Roundup
Issued by NWS

Home | Current Version | Previous Version | Text Only | Print | Product List | Glossary On
Versions: 1 2 3 4 5 6 7 8 9 10 11 12 13 14 15 16 17 18 19 20 21 22 23 24 25 26 27 28 29 30 31 32 33 34 35 36 37 38 39 40 41 42 43 44 45 46 47 48 49 50
000
ASUS44 KOUN 290210
RWROK

WEATHER ROUNDUP FOR OKLAHOMA
NATIONAL WEATHER SERVICE NORMAN OK
900 PM CDT FRI APR 28 2017

NOTE: "FAIR" INDICATES FEW OR NO CLOUDS BELOW 12,000 FEET WITH NO
      SIGNIFICANT WEATHER AND/OR OBSTRUCTIONS TO VISIBILITY.

OKZ001>007-009>012-014-015-017-290300-
NORTHWEST OKLAHOMA AND THE PANHANDLE

CITY           SKY/WX    TMP DP  RH WIND       PRES   REMARKS
GAGE           LGT RAIN  56  46  69 N21G30    29.74R
GUYMON         CLOUDY    47  46  97 NE20      29.77F
ENID/WOODRING  MOCLDY    64  57  77 NE12      29.68F
$$

OKZ016-021>023-033>039-044-045-290300-
SOUTHWEST OKLAHOMA

CITY           SKY/WX    TMP DP  RH WIND       PRES   REMARKS
LAWTON/REGL    CLOUDY    75  65  70 NE9       29.61S
LAWTON/FT SILL CLOUDY    74  65  75 NE7       29.60S
FREDERICK      CLOUDY    75  64  68 E14       29.56S
CLINTON        PTCLDY    67  51  56 NE14      29.66S
HOBART         CLOUDY    70  60  70 E8        29.61F
ALTUS AFB      CLEAR     73  60  65 E14       29.58F
$$

OKZ018>020-024>031-290300-
CENTRAL OKLAHOMA

CITY           SKY/WX    TMP DP  RH WIND       PRES   REMARKS
OKLAHOMA CITY  CLOUDY    70  62  76 E9        29.66R
OKC/WILEY POST CLOUDY    72  62  71 E9        29.66R
OKC/TINKER AFB CLOUDY    68  62  80 NE6       29.66R
GUTHRIE        MOCLDY    69  62  78 E8        29.67S
$$

OKZ008-013-054>072-290300-
NORTHEAST OKLAHOMA

CITY           SKY/WX    TMP DP  RH WIND       PRES   REMARKS
TULSA          CLOUDY    71  64  78 NE8       29.70R
TULSA/JONES    CLOUDY    72  62  71 NE7       29.70R
PONCA CITY     CLOUDY    67  55  65 E9        29.72R
BARTLESVILLE   CLOUDY    64  58  80 N5        29.76R
MUSKOGEE       LGT RAIN  69  66  90 N3        29.70R
$$

OKZ032-040>043-046>053-073>077-290300-
SOUTH CENTRAL/SOUTHEAST OKLAHOMA

CITY           SKY/WX    TMP DP  RH WIND       PRES   REMARKS
ARDMORE/DWNTWN CLOUDY    73  66  78 CALM      29.61R
MCALESTER      CLOUDY    76  69  79 NE5       29.65S
$$





USA.gov is the U.S. government's official web portal to all federal, state and local government web resources and services.